Kuantan, Malaysia

9:38 PM MYT on October 23, 2019 (GMT +0800)
Kuantan

Weather History for WMKD - September, 2019

Change the Weather History Date:

Wednesday, September 18, 2019

  Actual Average Record
Temperature  
Mean Temperature 81 °F -  
Max Temperature 88 °F 89 °F - ()
Min Temperature 74 °F 73 °F - ()
Cooling Degree Days 16    
Growing Degree Days 31 (Base 50)    
Moisture  
Dew Point 77 °F    
Average Humidity 85    
Maximum Humidity 100    
Minimum Humidity 63    
Precipitation  
Precipitation 0.04 in 0.34 in - ()
Sea Level Pressure  
Sea Level Pressure 29.85 in    
Wind  
Wind Speed 2 mph ()    
Max Wind Speed 15 mph    
Max Gust Speed -    
Visibility 1.3 miles    
Events Rain , Thunderstorm    
T = Trace of Precipitation, MM = Missing Value Source: Averaged Metar Reports

Daily Weather History Graph

Daily Weather History Graph

Search for Another Location

Airport or City:

Astronomy

Sep. 18, 2019 Rise Set
Actual Time 6:57 AM MYT 7:05 PM MYT
Civil Twilight 6:37 AM MYT 7:25 PM MYT
Nautical Twilight 6:12 AM MYT 7:50 PM MYT
Astronomical Twilight 5:48 AM MYT 8:14 PM MYT
Moon 10:07 PM MYT (9/18) 9:50 AM MYT (9/18)
Length of Visible Light 12h 48m
Length of Day
12h 07m
Waning Gibbous, 86% of the Moon is Illuminated
Sep 18
Waning Gibbous
Sep 22
Last Quarter
Sep 29
New
Oct 6
First Quarter
Oct 14
Full

Hourly Weather History & Observations

Time (MYT) Temp. Heat Index Dew Point Humidity Pressure Visibility Wind Dir Wind Speed Gust Speed Precip Events Conditions
12:00 AM 82.4 °F 90.9 °F 77.0 °F 84% 29.86 in 2.5 mi Variable 2.3 mph - N/A   Haze
1:00 AM 80.6 °F 87.1 °F 77.0 °F 89% 29.83 in 2.5 mi Variable 2.3 mph - N/A   Haze
2:00 AM 79 °F - 77 °F 91% 29.83 in 2 mi WNW 3.5 mph - - Thunderstorm Thunderstorm
2:00 AM 78.8 °F - 77.0 °F 94% 29.83 in 2.5 mi Variable 3.5 mph - N/A   Haze
3:00 AM 78.8 °F - 77.0 °F 94% 29.80 in 2.5 mi ENE 5.8 mph - N/A Rain , Thunderstorm Thunderstorms and Rain
4:00 AM 77.0 °F - 75.2 °F 94% 29.80 in 1.2 mi Calm Calm - N/A Rain , Thunderstorm Thunderstorms and Rain
5:00 AM 78 °F - 76 °F 92% 29.82 in 2 mi Calm Calm - - Rain Light Rain
5:00 AM 77.0 °F - 77.0 °F 100% 29.80 in 2.5 mi Calm Calm - N/A Rain Light Rain
6:00 AM 77.0 °F - 77.0 °F 100% 29.83 in 2.5 mi Calm Calm - N/A Rain Light Rain
7:00 AM 78.8 °F - 77.0 °F 94% 29.83 in 1.2 mi Calm Calm - N/A   Haze
8:00 AM 79 °F - 77 °F 91% 29.87 in 1 mi SSW 1.2 mph - -   Haze
8:00 AM 78.8 °F - 77.0 °F 94% 29.86 in 0.6 mi Variable 1.2 mph - N/A   Haze
9:00 AM 80.6 °F 87.1 °F 77.0 °F 89% 29.89 in 0.6 mi Variable 2.3 mph - N/A   Haze
10:00 AM 82.4 °F 92.4 °F 78.8 °F 89% 29.89 in 0.6 mi Variable 3.5 mph - N/A   Haze
11:00 AM 86 °F - 78 °F 70% 29.90 in 1 mi SSE 3.5 mph - -   Haze
11:00 AM 86.0 °F 96.9 °F 77.0 °F 74% 29.89 in 0.6 mi Variable 3.5 mph - N/A   Haze
12:00 PM 87.8 °F 99.7 °F 77.0 °F 70% 29.89 in 0.6 mi Variable 3.5 mph - N/A   Haze
1:00 PM 87.8 °F 99.7 °F 77.0 °F 70% 29.86 in 0.6 mi Variable 2.3 mph - N/A   Haze
2:00 PM 88 °F - 77 °F 63% 29.84 in 1 mi SE 3.5 mph - -   Haze
2:00 PM 87.8 °F 99.7 °F 77.0 °F 70% 29.83 in 0.6 mi SE 3.5 mph - N/A   Haze
4:00 PM 87.8 °F 102.5 °F 78.8 °F 75% 29.80 in 0.6 mi East 5.8 mph - N/A   Haze
5:00 PM 86 °F - 79 °F 75% 29.80 in 1 mi ESE 3.5 mph - -   Haze
5:00 PM 86.0 °F 99.3 °F 78.8 °F 79% 29.80 in 0.6 mi ESE 3.5 mph - N/A   Haze
6:00 PM 84.2 °F 96.1 °F 78.8 °F 84% 29.80 in 0.6 mi East 4.6 mph - N/A   Haze
7:00 PM 84.2 °F 96.1 °F 78.8 °F 84% 29.83 in 0.6 mi Variable 3.5 mph - N/A   Haze
8:00 PM 83 °F - 79 °F 84% 29.85 in 1 mi SSE 1.2 mph - -   Haze
8:00 PM 82.4 °F 92.4 °F 78.8 °F 89% 29.83 in 0.6 mi Variable 1.2 mph - N/A   Haze
9:00 PM 77.0 °F - 71.6 °F 83% 29.89 in 1.2 mi SW 15.0 mph - N/A Rain Light Rain
10:00 PM 75.2 °F - 71.6 °F 89% 29.89 in 1.2 mi Calm Calm - N/A Rain , Thunderstorm Light Thunderstorms and Rain
11:00 PM 74 °F - 72 °F 91% 29.91 in 2 mi NNW 3.5 mph - - Rain , Thunderstorm Thunderstorms and Rain
11:00 PM 75.2 °F - 71.6 °F 89% 29.89 in 2.5 mi NNW 3.5 mph - N/A Rain , Thunderstorm Light Thunderstorms and Rain